Flag for Russia Weather past 2 weeks in Chelyabinsk, Russia

Now
55 °F

Broken clouds.


Feels Like: 55 °F
Forecast: 55 / 63 °F
Wind: 3 mph from North

Location: Chelyabinsk-Balandino

Current Time: Jul 31, 2014 at 7:43:46 AM

Latest Report: Jul 31, 2014 at 7:00 AM


Visibility: N/A

Pressure: 29.86 "Hg

Humidity: 94%

Dew point: 54 °F

Location of ChelyabinskLocation

Historic Weather in Chelyabinsk — Graph

°F

Chelyabinsk temperature yesterday

Maximum temperature yesterday: 72 °F (at 2:30 PM)
Minimum temperature yesterday: 46 °F (at 12:30 AM)
Average temperature yesterday: 61 °F

Past Weeks' High & Low Weather Summary

 TemperatureHumidityPressure
High79 °F (Jul 16, 5:00 PM)100% (Jul 18, 5:30 AM)30.04 "Hg (Jul 18, 5:30 AM)
Low41 °F (Jul 18, 5:30 AM)39% (Jul 16, 6:00 PM)29.12 "Hg (Jul 21, 8:00 AM)
Average55 °F77%29.70 "Hg
* Reported Jul 16 6:00 AM — Jul 31 6:30 AM, Chelyabinsk, Weather by CustomWeather, © 2014

Note: Actual official high and low records may vary slightly from our data, if they occured in-between our weather recording intervals... More about our weather records

Advertising

Chelyabinsk weather history for previous 24 hours

 ConditionsComfort  
Time TempWeatherWind HumidityBarometerVisibility
6:30 AM
Jul 31
57 °FBroken clouds.3 mph88%29.83 "HgN/A
6:00 AM57 °FBroken clouds.3 mph82%29.83 "HgN/A
5:30 AM59 °FPartly cloudy.6 mph82%29.83 "HgN/A
5:00 AM59 °FPassing clouds.6 mph82%29.83 "HgN/A
4:30 AM61 °FPassing clouds.8 mph77%29.86 "HgN/A
4:00 AM61 °FPassing clouds.8 mph77%29.86 "HgN/A
3:30 AM61 °FPassing clouds.6 mph77%29.86 "HgN/A
3:00 AM61 °FPassing clouds.6 mph77%29.86 "HgN/A
2:30 AM61 °FPassing clouds.6 mph77%29.89 "HgN/A
2:00 AM61 °FPassing clouds.6 mph77%29.89 "HgN/A
1:30 AM61 °FPassing clouds.10 mph77%29.89 "HgN/A
1:00 AM61 °FPassing clouds.8 mph77%29.89 "HgN/A
12:30 AM61 °FPassing clouds.10 mph72%29.89 "HgN/A
11:30 PM
Jul 30
61 °FPassing clouds.10 mph77%29.92 "HgN/A
11:00 PM61 °FPassing clouds.10 mph77%29.92 "HgN/A
10:30 PM63 °FPassing clouds.10 mph73%29.92 "HgN/A
10:00 PM63 °FPartly sunny.10 mph68%29.92 "HgN/A
9:30 PM63 °FPartly sunny.8 mph73%29.92 "HgN/A
9:00 PM64 °FBroken clouds.10 mph60%29.92 "HgN/A
8:30 PM64 °FBroken clouds.15 mph60%29.92 "HgN/A
8:00 PM66 °FBroken clouds.10 mph56%29.92 "HgN/A
7:30 PM68 °FPartly sunny.15 mph53%29.95 "HgN/A
7:00 PM68 °FPartly sunny.10 mph56%29.95 "HgN/A
6:30 PM70 °FPartly sunny.10 mph53%29.95 "HgN/A
6:00 PM70 °FBroken clouds.13 mph50%29.95 "HgN/A
5:30 PM70 °FBroken clouds.13 mph50%29.95 "HgN/A
5:00 PM72 °FBroken clouds.13 mph47%29.95 "HgN/A
4:30 PM70 °FBroken clouds.13 mph50%29.95 "HgN/A
4:00 PM72 °FBroken clouds.13 mph47%29.95 "HgN/A
3:30 PM70 °FBroken clouds.10 mph50%29.95 "HgN/A
3:00 PM72 °FBroken clouds.13 mph50%29.98 "HgN/A
2:30 PM72 °FBroken clouds.10 mph50%29.98 "HgN/A
2:00 PM70 °FBroken clouds.15 mph50%29.98 "HgN/A
1:30 PM70 °FBroken clouds.15 mph53%29.98 "HgN/A
1:00 PM70 °FBroken clouds.10 mph57%29.98 "HgN/A
12:30 PM68 °FPartly sunny.10 mph60%29.98 "HgN/A
12:00 PM66 °FPartly sunny.10 mph64%29.98 "HgN/A
11:30 AM66 °FPartly sunny.10 mph64%29.98 "HgN/A
11:00 AM63 °FBroken clouds.10 mph68%29.98 "HgN/A
10:30 AM63 °FBroken clouds.13 mph68%29.98 "HgN/A
10:00 AM59 °FBroken clouds.10 mph72%29.98 "HgN/A
9:30 AM59 °FBroken clouds.13 mph72%29.98 "HgN/A
9:00 AM57 °FBroken clouds.13 mph72%29.98 "HgN/A
8:30 AM57 °FBroken clouds.10 mph72%29.98 "HgN/A
8:00 AM55 °FScattered clouds.10 mph72%29.98 "HgN/A
7:30 AM54 °FScattered clouds.13 mph77%29.98 "HgN/A
7:00 AM54 °FScattered clouds.10 mph77%29.98 "HgN/A
Weather by CustomWeather, © 2014

See weather overviewHow to use our weather pages